WA6MEM Weather Reports


time (UTC)temp
C
wind
direction
speed
KPH
gust
KPH
rain 1hr
cm
rain 24hr
cm
rain mn
cm
humidity
%
barometer
mb
20260508075523 12 64 0.0 0.0 0.00 0.00 0.00 95 1014.2
20260508075023 12 64 0.0 0.0 0.00 0.00 0.00 95 1014.2
20260508074524 12 64 1.6 0.0 0.00 0.00 0.00 95 1014.2
20260508074023 12 64 1.6 0.0 0.00 0.00 0.00 95 1014.2
20260508073526 12 128 0.0 0.0 0.00 0.00 0.00 95 1014.2
20260508073022 12 155 0.0 0.0 0.00 0.00 0.00 95 1014.2
20260508072521 12 155 0.0 0.0 0.00 0.00 0.00 95 1014.2
20260508072023 12 135 0.0 0.0 0.00 0.00 0.00 95 1014.2
20260508071536 12 135 1.6 0.0 0.00 0.00 0.00 95 1014.2
20260508071021 12 175 1.6 0.0 0.00 0.00 0.00 95 1014.3
20260508070524 12 175 1.6 0.0 0.00 0.00 0.00 95 1014.3
20260508070020 12 157 1.6 0.0 0.00 0.00 0.00 95 1014.3
20260508065522 12 157 1.6 0.0 0.00 0.00 0.00 94 1014.2
20260508065019 12 157 1.6 0.0 0.00 0.00 0.00 94 1014.2
20260508064519 12 124 1.6 0.0 0.00 0.00 0.00 94 1014.2
20260508064019 12 147 1.6 0.0 0.00 0.00 0.00 94 1014.2
20260508063521 12 193 1.6 0.0 0.00 0.00 0.00 95 1014.2
20260508063030 12 210 1.6 0.0 0.00 0.00 0.00 95 1014.2
20260508062519 12 198 1.6 0.0 0.00 0.00 0.00 95 1014.2
20260508062018 12 196 1.6 0.0 0.00 0.00 0.00 94 1014.2
20260508061518 12 196 1.6 0.0 0.00 0.00 0.00 94 1014.2
20260508061021 12 196 1.6 0.0 0.00 0.00 0.00 94 1014.3
20260508060519 12 194 1.6 0.0 0.00 0.00 0.00 94 1014.3
20260508060018 12 174 1.6 0.0 0.00 0.00 0.00 94 1014.3
20260508055517 12 198 1.6 0.0 0.00 0.00 0.00 94 1014.3
20260508055018 12 198 1.6 0.0 0.00 0.00 0.00 94 1014.3
20260508054518 12 198 1.6 0.0 0.00 0.00 0.00 94 1014.3
20260508054017 12 207 1.6 0.0 0.00 0.00 0.00 94 1014.3
20260508053517 12 200 1.6 0.0 0.00 0.00 0.00 94 1014.3
20260508053021 12 198 1.6 0.0 0.00 0.00 0.00 94 1014.3
20260508052519 12 171 1.6 0.0 0.00 0.00 0.00 94 1014.3
20260508052017 12 194 3.2 0.0 0.00 0.00 0.00 94 1014.3
20260508051517 12 186 3.2 0.0 0.00 0.00 0.00 94 1014.3
20260508051017 12 175 1.6 0.0 0.00 0.00 0.00 94 1014.3
20260508050517 13 202 3.2 0.0 0.00 0.00 0.00 94 1014.3
20260508050017 13 202 3.2 0.0 0.00 0.00 0.00 94 1014.3
20260508045516 13 184 3.2 0.0 0.00 0.00 0.00 94 1014.3
20260508045016 13 180 3.2 0.0 0.00 0.00 0.00 94 1014.3
20260508044516 13 184 3.2 0.0 0.00 0.00 0.00 94 1014.3
20260508044016 13 186 3.2 0.0 0.00 0.00 0.00 94 1014.2
20260508043515 13 198 3.2 0.0 0.00 0.00 0.00 94 1014.2
20260508043019 13 180 3.2 0.0 0.00 0.00 0.00 94 1014.2
20260508042519 13 197 3.2 0.0 0.00 0.00 0.00 94 1013.9
20260508042015 13 201 3.2 0.0 0.00 0.00 0.00 93 1013.9
20260508041515 13 190 3.2 0.0 0.00 0.00 0.00 93 1013.9
20260508041015 13 178 3.2 0.0 0.00 0.00 0.00 93 1013.8
20260508040514 13 169 3.2 0.0 0.00 0.00 0.00 93 1013.8
20260508040014 13 175 1.6 0.0 0.00 0.00 0.00 93 1013.8
20260508035514 13 206 1.6 0.0 0.00 0.00 0.00 93 1013.7
20260508035014 13 198 3.2 0.0 0.00 0.00 0.00 92 1013.7
20260508034514 13 179 3.2 0.0 0.00 0.00 0.00 92 1013.7
20260508034014 13 181 3.2 0.0 0.00 0.00 0.00 91 1013.4
20260508033514 13 193 3.2 0.0 0.00 0.00 0.00 91 1013.4
20260508033017 13 173 1.6 0.0 0.00 0.00 0.00 91 1013.4
20260508032518 13 231 1.6 0.0 0.00 0.00 0.00 91 1013.3
20260508032013 13 231 1.6 0.0 0.00 0.00 0.00 91 1013.3
20260508031513 12 248 1.6 0.0 0.00 0.00 0.00 92 1013.3
20260508031013 12 75 1.6 0.0 0.00 0.00 0.00 92 1013.2
20260508030513 13 42 1.6 0.0 0.00 0.00 0.00 92 1013.2
20260508030013 13 128 1.6 0.0 0.00 0.00 0.00 92 1013.2
20260508025515 13 169 0.0 0.0 0.00 0.00 0.00 92 1012.9
20260508025012 13 169 0.0 0.0 0.00 0.00 0.00 92 1012.9
20260508024521 13 169 1.6 0.0 0.00 0.00 0.00 92 1012.9
20260508024014 13 189 3.2 0.0 0.00 0.00 0.00 92 1012.8
20260508023512 13 189 3.2 0.0 0.00 0.00 0.00 92 1012.8
20260508023020 13 201 3.2 0.0 0.00 0.00 0.00 92 1012.8
20260508022512 13 207 4.8 0.0 0.00 0.00 0.00 92 1012.7
20260508022012 13 360 4.8 0.0 0.00 0.00 0.00 91 1012.7
20260508021512 14 192 6.4 0.0 0.00 0.00 0.00 90 1012.7
20260508021011 14 202 6.4 0.0 0.00 0.00 0.00 90 1012.8
20260508020511 15 177 4.8 0.0 0.00 0.00 0.00 89 1012.8
20260508020011 15 156 4.8 0.0 0.00 0.00 0.00 88 1012.8
20260508015511 15 173 4.8 0.0 0.00 0.00 0.00 87 1012.7
20260508015011 15 182 4.8 0.0 0.00 0.00 0.00 86 1012.7
20260508014511 15 173 4.8 0.0 0.00 0.00 0.00 86 1012.7
20260508014009 16 163 4.8 0.0 0.00 0.00 0.00 85 1012.6
20260508013514 16 192 4.8 0.0 0.00 0.00 0.00 84 1012.6
20260508013010 16 360 3.2 0.0 0.00 0.00 0.00 84 1012.6
20260508012510 16 172 3.2 0.0 0.00 0.00 0.00 83 1012.5
20260508012011 16 185 3.2 0.0 0.00 0.00 0.00 83 1012.5
20260508011509 16 197 3.2 0.0 0.00 0.00 0.00 83 1012.5
20260508011009 16 360 4.8 0.0 0.00 0.00 0.00 83 1012.7
20260508010509 16 179 4.8 0.0 0.00 0.00 0.00 82 1012.7
20260508010010 17 177 4.8 0.0 0.00 0.00 0.00 82 1012.7
20260508005508 17 161 4.8 0.0 0.00 0.00 0.00 82 1012.6
20260508005012 17 174 4.8 0.0 0.00 0.00 0.00 82 1012.6
20260508004508 17 198 4.8 0.0 0.00 0.00 0.00 81 1012.6
20260508004012 17 188 4.8 0.0 0.00 0.00 0.00 80 1012.7
20260508003512 17 161 3.2 0.0 0.00 0.00 0.00 80 1012.7
20260508003009 18 157 3.2 0.0 0.00 0.00 0.00 79 1012.7
20260508002511 18 159 3.2 0.0 0.00 0.00 0.00 79 1012.7
20260508002008 18 169 3.2 0.0 0.00 0.00 0.00 79 1012.7
20260508001508 18 187 4.8 0.0 0.00 0.00 0.00 79 1012.7
20260508001007 18 209 4.8 0.0 0.00 0.00 0.00 79 1012.6
20260508000508 18 169 4.8 0.0 0.00 0.00 0.00 78 1012.6
20260508000006 18 219 4.8 0.0 0.00 0.00 0.00 78 1012.6
20260507235510 18 169 3.2 0.0 0.00 0.00 0.00 79 1012.6
20260507235005 18 186 3.2 0.0 0.00 0.00 0.00 79 1012.6
20260507234507 18 188 4.8 0.0 0.00 0.00 0.00 81 1012.6
20260507234006 18 122 4.8 0.0 0.00 0.00 0.00 81 1012.6
20260507233505 18 173 4.8 0.0 0.00 0.00 0.00 81 1012.6
20260507233011 18 164 4.8 0.0 0.00 0.00 0.00 81 1012.7
20260507232506 17 136 6.4 0.0 0.00 0.00 0.00 81 1012.7
20260507232004 17 174 6.4 0.0 0.00 0.00 0.00 81 1012.7
20260507231504 18 176 6.4 0.0 0.00 0.00 0.00 81 1012.7
20260507231004 18 150 6.4 0.0 0.00 0.00 0.00 81 1012.7
20260507230504 18 167 6.4 0.0 0.00 0.00 0.00 81 1012.7
20260507230005 18 155 6.4 0.0 0.00 0.00 0.00 80 1012.7
20260507225503 18 163 4.8 0.0 0.00 0.00 0.00 81 1012.7
20260507225004 18 155 6.4 0.0 0.00 0.00 0.00 81 1012.7
20260507224502 18 167 6.4 0.0 0.00 0.00 0.00 80 1013.0
20260507224004 18 169 4.8 0.0 0.00 0.00 0.00 79 1013.0
20260507223502 18 194 4.8 0.0 0.00 0.00 0.00 79 1013.0
20260507223001 18 166 4.8 0.0 0.00 0.00 0.00 78 1013.1
20260507222603 18 229 4.8 0.0 0.00 0.00 0.00 79 1013.1
20260507222101 18 360 6.4 0.0 0.00 0.00 0.00 80 1013.1
20260507221559 18 159 6.4 0.0 0.00 0.00 0.00 80 1013.1
20260507221058 18 172 4.8 0.0 0.00 0.00 0.00 80 1013.3
20260507220558 18 360 4.8 0.0 0.00 0.00 0.00 81 1013.3
20260507220058 17 196 6.4 0.0 0.00 0.00 0.00 81 1013.3
20260507215558 17 178 6.4 0.0 0.00 0.00 0.00 80 1013.4
20260507215058 18 187 4.8 0.0 0.00 0.00 0.00 81 1013.4
20260507214606 17 163 4.8 0.0 0.00 0.00 0.00 82 1013.4
20260507214057 17 140 4.8 0.0 0.00 0.00 0.00 81 1013.7
20260507213557 17 104 6.4 0.0 0.00 0.00 0.00 82 1013.7
20260507213058 17 205 6.4 0.0 0.00 0.00 0.00 82 1013.7
20260507212556 17 173 4.8 0.0 0.00 0.00 0.00 82 1013.8
20260507212100 17 178 6.4 0.0 0.00 0.00 0.00 82 1013.8
20260507211601 17 166 6.4 0.0 0.00 0.00 0.00 83 1013.8
20260507211056 17 145 6.4 0.0 0.00 0.00 0.00 82 1013.9
20260507210556 17 155 6.4 0.0 0.00 0.00 0.00 82 1013.9
20260507205554 18 213 4.8 0.0 0.00 0.00 0.00 82 1014.0
20260507205055 18 217 6.4 0.0 0.00 0.00 0.00 81 1014.0
20260507204555 18 216 6.4 0.0 0.00 0.00 0.00 83 1014.0
20260507204057 17 167 4.8 0.0 0.00 0.00 0.00 83 1014.2
20260507203554 17 166 6.4 0.0 0.00 0.00 0.00 83 1014.2
20260507203106 17 178 4.8 0.0 0.00 0.00 0.00 82 1014.2
20260507202552 17 172 6.4 0.0 0.00 0.00 0.00 83 1014.2
20260507202052 17 227 6.4 0.0 0.00 0.00 0.00 81 1014.2
20260507201559 17 225 4.8 0.0 0.00 0.00 0.00 81 1014.2
20260507201055 18 186 4.8 0.0 0.00 0.00 0.00 81 1014.2
20260507200553 17 182 4.8 0.0 0.00 0.00 0.00 82 1014.2
20260507200106 17 234 4.8 0.0 0.00 0.00 0.00 82 1014.2
20260507195551 17 201 4.8 0.0 0.00 0.00 0.00 83 1014.2
20260507195052 18 161 4.8 0.0 0.00 0.00 0.00 81 1014.2
20260507194551 18 197 4.8 0.0 0.00 0.00 0.00 81 1014.2
20260507194050 18 179 4.8 0.0 0.00 0.00 0.00 81 1014.5
20260507193550 18 187 4.8 0.0 0.00 0.00 0.00 80 1014.5
20260507193051 18 211 4.8 0.0 0.00 0.00 0.00 82 1014.5
20260507192551 18 165 4.8 0.0 0.00 0.00 0.00 82 1014.7
20260507192050 18 190 4.8 0.0 0.00 0.00 0.00 81 1014.7
20260507191549 17 237 4.8 0.0 0.00 0.00 0.00 82 1014.7
20260507191049 17 198 4.8 0.0 0.00 0.00 0.00 82 1014.7
20260507190551 17 180 4.8 0.0 0.00 0.00 0.00 81 1014.7
20260507190054 17 267 4.8 0.0 0.00 0.00 0.00 81 1014.7
20260507185551 17 164 4.8 0.0 0.00 0.00 0.00 83 1014.8
20260507185046 17 169 4.8 0.0 0.00 0.00 0.00 83 1014.8
20260507184551 17 136 4.8 0.0 0.00 0.00 0.00 82 1014.8
20260507184044 17 171 4.8 0.0 0.00 0.00 0.00 84 1014.8
20260507183544 17 204 4.8 0.0 0.00 0.00 0.00 84 1014.8
20260507183048 17 161 4.8 0.0 0.00 0.00 0.00 85 1014.8
20260507182545 17 159 4.8 0.0 0.00 0.00 0.00 83 1014.8
20260507182046 17 186 4.8 0.0 0.00 0.00 0.00 83 1014.8
20260507181543 17 219 4.8 0.0 0.00 0.00 0.00 83 1014.8
20260507181042 17 201 4.8 0.0 0.00 0.00 0.00 84 1014.9
20260507180544 17 186 3.2 0.0 0.00 0.00 0.00 84 1014.9
20260507180046 17 142 3.2 0.0 0.00 0.00 0.00 85 1014.9
20260507175546 17 160 4.8 0.0 0.00 0.00 0.00 84 1014.8
20260507175038 16 239 4.8 0.0 0.00 0.00 0.00 85 1014.8
20260507174539 16 172 4.8 0.0 0.00 0.00 0.00 86 1014.8
20260507174037 16 176 3.2 0.0 0.00 0.00 0.00 86 1015.0
20260507173537 16 200 3.2 0.0 0.00 0.00 0.00 87 1015.0
20260507173037 16 161 3.2 0.0 0.00 0.00 0.00 87 1015.0
20260507172538 16 123 4.8 0.0 0.00 0.00 0.00 87 1015.0
20260507172036 16 149 4.8 0.0 0.00 0.00 0.00 87 1015.0
20260507171536 16 132 4.8 0.0 0.00 0.00 0.00 86 1015.0
20260507171036 16 188 4.8 0.0 0.00 0.00 0.00 86 1015.0
20260507170536 16 159 3.2 0.0 0.00 0.00 0.00 85 1015.0
20260507170036 16 184 3.2 0.0 0.00 0.00 0.00 87 1015.0
20260507165533 16 209 3.2 0.0 0.00 0.00 0.00 88 1015.0
20260507165034 16 238 3.2 0.0 0.00 0.00 0.00 88 1015.0
20260507164541 16 166 3.2 0.0 0.00 0.00 0.00 86 1015.0
20260507164032 16 151 3.2 0.0 0.00 0.00 0.00 88 1015.0
20260507163531 16 221 3.2 0.0 0.00 0.00 0.00 88 1015.0
20260507163031 16 213 3.2 0.0 0.00 0.00 0.00 88 1015.0
20260507162531 16 192 3.2 0.0 0.00 0.00 0.00 89 1015.0
20260507162030 15 207 3.2 0.0 0.00 0.00 0.00 88 1015.0
20260507161530 15 211 1.6 0.0 0.00 0.00 0.00 89 1015.0
20260507161028 15 113 1.6 0.0 0.00 0.00 0.00 90 1015.1
20260507160527 15 163 3.2 0.0 0.00 0.00 0.00 90 1015.1
20260507160028 15 169 3.2 0.0 0.00 0.00 0.00 90 1015.1
20260507155525 15 165 3.2 0.0 0.00 0.00 0.00 91 1015.0
20260507155025 15 165 3.2 0.0 0.00 0.00 0.00 91 1015.0
20260507154525 15 157 3.2 0.0 0.00 0.00 0.00 90 1015.0
20260507154025 15 190 3.2 0.0 0.00 0.00 0.00 90 1015.0
20260507153525 15 146 3.2 0.0 0.00 0.00 0.00 90 1015.0
20260507153025 15 179 1.6 0.0 0.00 0.00 0.00 91 1015.0
20260507152524 15 136 1.6 0.0 0.00 0.00 0.00 90 1015.1
20260507152024 15 196 3.2 0.0 0.00 0.00 0.00 90 1015.1
20260507151523 15 155 3.2 0.0 0.00 0.00 0.00 90 1015.1
20260507151023 14 153 1.6 0.0 0.00 0.00 0.00 90 1015.1
20260507150521 14 148 1.6 0.0 0.00 0.00 0.00 90 1015.1
20260507150024 13 28 1.6 0.0 0.00 0.00 0.00 91 1015.1
20260507145521 13 169 1.6 0.0 0.00 0.00 0.00 91 1015.0
20260507145018 13 169 1.6 0.0 0.00 0.00 0.00 91 1015.0
20260507144524 13 164 1.6 0.0 0.00 0.00 0.00 91 1015.0
20260507144017 13 164 1.6 0.0 0.00 0.00 0.00 91 1015.1
20260507143515 13 164 1.6 0.0 0.00 0.00 0.00 92 1015.1
20260507143015 13 164 0.0 0.0 0.00 0.00 0.00 92 1015.1
20260507142514 13 164 0.0 0.0 0.00 0.00 0.00 93 1015.0
20260507142015 12 164 0.0 0.0 0.00 0.00 0.00 93 1015.0
20260507141514 12 164 0.0 0.0 0.00 0.00 0.00 93 1015.0
20260507141014 12 164 0.0 0.0 0.00 0.00 0.00 94 1014.8
20260507140515 12 164 0.0 0.0 0.00 0.00 0.00 94 1014.8
20260507140013 12 164 0.0 0.0 0.00 0.00 0.00 94 1014.8
20260507135512 12 164 0.0 0.0 0.00 0.00 0.00 94 1014.7
20260507135012 11 164 0.0 0.0 0.00 0.00 0.00 94 1014.7
20260507134513 11 164 0.0 0.0 0.00 0.00 0.00 94 1014.7
20260507134014 11 164 0.0 0.0 0.00 0.00 0.00 94 1014.6
20260507133511 11 164 0.0 0.0 0.00 0.00 0.00 93 1014.6
20260507133011 11 164 0.0 0.0 0.00 0.00 0.00 93 1014.6
20260507132511 11 164 0.0 0.0 0.00 0.00 0.00 93 1014.6
20260507132011 11 164 0.0 0.0 0.00 0.00 0.00 93 1014.6
20260507131511 11 164 1.6 0.0 0.00 0.00 0.00 93 1014.6
20260507131011 11 164 1.6 0.0 0.00 0.00 0.00 93 1014.5
20260507130510 11 156 0.0 0.0 0.00 0.00 0.00 92 1014.5
20260507130010 11 60 0.0 0.0 0.00 0.00 0.00 92 1014.5
20260507125508 11 60 0.0 0.0 0.00 0.00 0.00 91 1014.4
20260507125008 11 60 0.0 0.0 0.00 0.00 0.00 92 1014.4
20260507124510 11 60 0.0 0.0 0.00 0.00 0.00 92 1014.4
20260507124008 11 60 0.0 0.0 0.00 0.00 0.00 92 1014.4
20260507123512 11 60 0.0 0.0 0.00 0.00 0.00 91 1014.4
20260507123009 11 60 0.0 0.0 0.00 0.00 0.00 91 1014.4
20260507122511 11 60 0.0 0.0 0.00 0.00 0.00 92 1014.4
20260507122007 11 60 0.0 0.0 0.00 0.00 0.00 92 1014.4
20260507121507 11 60 0.0 0.0 0.00 0.00 0.00 92 1014.4
20260507121007 11 60 0.0 0.0 0.00 0.00 0.00 92 1014.3
20260507120506 11 60 0.0 0.0 0.00 0.00 0.00 92 1014.3
20260507120007 11 60 0.0 0.0 0.00 0.00 0.00 91 1014.3
20260507115506 11 60 0.0 0.0 0.00 0.00 0.00 91 1014.3
20260507115008 11 60 0.0 0.0 0.00 0.00 0.00 90 1014.3
20260507114506 11 60 0.0 0.0 0.00 0.00 0.00 91 1014.3
20260507114006 11 60 1.6 0.0 0.00 0.00 0.00 92 1014.2
20260507113508 11 60 1.6 0.0 0.00 0.00 0.00 92 1014.2
20260507113012 11 60 1.6 0.0 0.00 0.00 0.00 91 1014.2
20260507112507 11 60 1.6 0.0 0.00 0.00 0.00 91 1014.3
20260507112005 11 60 1.6 0.0 0.00 0.00 0.00 91 1014.3
20260507111504 11 60 1.6 0.0 0.00 0.00 0.00 91 1014.3
20260507111003 11 60 1.6 0.0 0.00 0.00 0.00 91 1014.4
20260507110503 11 60 3.2 0.0 0.00 0.00 0.00 91 1014.4
20260507110003 11 39 3.2 0.0 0.00 0.00 0.00 92 1014.5
20260507105502 11 39 1.6 0.0 0.00 0.00 0.00 90 1014.5
20260507105003 11 250 1.6 0.0 0.00 0.00 0.00 91 1014.5
20260507104502 11 250 0.0 0.0 0.00 0.00 0.00 91 1014.6
20260507104001 11 250 0.0 0.0 0.00 0.00 0.00 91 1014.6
20260507103501 11 250 0.0 0.0 0.00 0.00 0.00 91 1014.6
20260507103100 11 250 0.0 0.0 0.00 0.00 0.00 91 1014.6
20260507102600 11 250 0.0 0.0 0.00 0.00 0.00 91 1014.7
20260507102100 11 250 0.0 0.0 0.00 0.00 0.00 91 1014.7
20260507101613 11 250 0.0 0.0 0.00 0.00 0.00 91 1014.7
20260507101102 11 250 0.0 0.0 0.00 0.00 0.00 91 1014.7
20260507100559 11 250 0.0 0.0 0.00 0.00 0.00 91 1014.7
20260507095558 11 250 1.6 0.0 0.00 0.00 0.00 90 1014.8
20260507095056 11 250 1.6 0.0 0.00 0.00 0.00 90 1014.8
20260507094604 11 250 0.0 0.0 0.00 0.00 0.00 90 1014.8
20260507094059 11 250 0.0 0.0 0.00 0.00 0.00 90 1014.9
20260507093555 11 250 0.0 0.0 0.00 0.00 0.00 89 1014.9
20260507093054 12 250 0.0 0.0 0.00 0.00 0.00 90 1014.9
20260507092554 12 250 1.6 0.0 0.00 0.00 0.00 90 1014.9
20260507092056 12 250 0.0 0.0 0.00 0.00 0.00 90 1014.9
20260507091553 12 166 0.0 0.0 0.00 0.00 0.00 90 1014.9
20260507091053 12 166 0.0 0.0 0.00 0.00 0.00 90 1015.1
20260507090553 12 166 0.0 0.0 0.00 0.00 0.00 89 1015.1
20260507090052 12 166 1.6 0.0 0.00 0.00 0.00 89 1015.1
20260507085553 12 166 1.6 0.0 0.00 0.00 0.00 89 1015.2
20260507085051 12 166 1.6 0.0 0.00 0.00 0.00 89 1015.2
20260507084557 12 166 0.0 0.0 0.00 0.00 0.00 89 1015.2
20260507084052 12 202 0.0 0.0 0.00 0.00 0.00 89 1015.4
20260507083549 12 248 0.0 0.0 0.00 0.00 0.00 88 1015.4
20260507083051 12 247 0.0 0.0 0.00 0.00 0.00 89 1015.4
20260507082548 12 247 0.0 0.0 0.00 0.00 0.00 88 1015.4
20260507082048 12 248 1.6 0.0 0.00 0.00 0.00 88 1015.4
20260507081548 12 248 1.6 0.0 0.00 0.00 0.00 88 1015.4
20260507081048 12 211 3.2 0.0 0.00 0.00 0.00 88 1015.4
20260507080548 12 258 3.2 0.0 0.00 0.00 0.00 88 1015.4
20260507075547 12 268 3.2 0.0 0.00 0.00 0.00 88 1015.4